When you browse on this site, cookies collect data to enhance your experience and personalize the content and advertising you see.
Visit our Privacy Policy to learn more. By continuing to use the site, you agree to this use of cookies and data.
  • In Hungary
  • List of Countries
  • For 7 days
  • Water Temperature
  • Satellite Maps
  • Weather Map
  • News
  • Weather Widgets
  • user-avatar
    Login

    Hourly Weather Solden

    Today, 23 January, Wednesday

    Time Temperature Precipitation Wind Pressure Humidity
    00:00 -13°C° 0 mm 1 mps 566 mmHg 58%
    01:00 -13°C° 0 mm 0 mps 565 mmHg 57%
    02:00 -13°C° 0 mm 1 mps 565 mmHg 58%
    03:00 -13°C° 0 mm 1 mps 564 mmHg 58%
    04:00 -14°C° 0 mm 1 mps 564 mmHg 59%
    05:00 -14°C° 0 mm 1 mps 563 mmHg 60%
    06:00 -14°C° 0 mm 1 mps 563 mmHg 62%
    07:00 -14°C° 0 mm 1 mps 563 mmHg 61%
    08:00 -13°C° 0.1 mm 1 mps 563 mmHg 62%
    09:00 -12°C° 0.1 mm 0 mps 564 mmHg 63%
    10:00 -11°C° 0.1 mm 0 mps 564 mmHg 64%
    11:00 -10°C° 0 mm 0 mps 564 mmHg 64%
    12:00 -9°C° 0 mm 1 mps 564 mmHg 64%
    13:00 -9°C° 0 mm 1 mps 564 mmHg 63%
    14:00 -9°C° 0 mm 1 mps 564 mmHg 66%
    15:00 -10°C° 0 mm 1 mps 564 mmHg 69%
    16:00 -10°C° 0 mm 1 mps 563 mmHg 71%
    17:00 -11°C° 0 mm 1 mps 563 mmHg 73%
    18:00 -13°C° 0 mm 1 mps 562 mmHg 75%
    19:00 -14°C° 0 mm 1 mps 562 mmHg 77%
    20:00 -14°C° 0 mm 1 mps 562 mmHg 76%
    21:00 -14°C° 0 mm 1 mps 562 mmHg 75%
    22:00 -14°C° 0 mm 1 mps 562 mmHg 74%
    23:00 -15°C° 0 mm 1 mps 563 mmHg 74%

    Tomorrow, 24 January, Thursday

    Time Temperature Precipitation Wind Pressure Humidity
    00:00 -15°C° 0 mm 1 mps 563 mmHg 73%
    01:00 -17°C° 0 mm 2 mps 563 mmHg 72%
    02:00 -17°C° 0 mm 2 mps 563 mmHg 72%
    03:00 -17°C° 0 mm 2 mps 563 mmHg 71%
    04:00 -17°C° 0 mm 2 mps 564 mmHg 71%
    05:00 -17°C° 0 mm 2 mps 564 mmHg 71%
    06:00 -17°C° 0 mm 2 mps 564 mmHg 71%
    07:00 -17°C° 0 mm 2 mps 564 mmHg 71%
    08:00 -16°C° 0 mm 2 mps 565 mmHg 69%
    09:00 -15°C° 0 mm 2 mps 566 mmHg 67%
    10:00 -13°C° 0 mm 2 mps 567 mmHg 65%
    11:00 -12°C° 0 mm 2 mps 568 mmHg 63%
    12:00 -10°C° 0 mm 2 mps 569 mmHg 61%
    13:00 -8°C° 0 mm 2 mps 569 mmHg 59%
    14:00 -9°C° 0 mm 2 mps 569 mmHg 61%
    15:00 -9°C° 0 mm 2 mps 569 mmHg 64%
    16:00 -10°C° 0 mm 2 mps 569 mmHg 67%
    17:00 -12°C° 0 mm 2 mps 569 mmHg 69%
    18:00 -14°C° 0 mm 2 mps 568 mmHg 72%
    19:00 -17°C° 0 mm 3 mps 568 mmHg 74%
    20:00 -17°C° 0 mm 3 mps 568 mmHg 73%
    21:00 -18°C° 0 mm 3 mps 568 mmHg 72%
    22:00 -18°C° 0 mm 3 mps 568 mmHg 71%
    23:00 -18°C° 0 mm 3 mps 568 mmHg 71%

    Day after tomorrow, 25 January, Friday

    Time Temperature Precipitation Wind Pressure Humidity
    00:00 -18°C° 0 mm 3 mps 568 mmHg 71%
    01:00 -19°C° 0 mm 3 mps 568 mmHg 70%
    02:00 -19°C° 0 mm 3 mps 568 mmHg 70%
    03:00 -19°C° 0 mm 3 mps 568 mmHg 70%
    04:00 -19°C° 0 mm 3 mps 568 mmHg 70%
    05:00 -19°C° 0 mm 3 mps 568 mmHg 70%
    06:00 -19°C° 0 mm 3 mps 569 mmHg 70%
    07:00 -21°C° 0 mm 3 mps 569 mmHg 70%
    08:00 -18°C° 0 mm 3 mps 570 mmHg 68%
    09:00 -17°C° 0 mm 3 mps 570 mmHg 66%
    10:00 -16°C° 0 mm 3 mps 571 mmHg 63%
    11:00 -15°C° 0 mm 3 mps 572 mmHg 61%
    12:00 -14°C° 0 mm 3 mps 572 mmHg 59%
    13:00 -12°C° 0 mm 3 mps 573 mmHg 57%
    14:00 -13°C° 0 mm 3 mps 573 mmHg 59%
    15:00 -13°C° 0 mm 3 mps 573 mmHg 61%
    16:00 -13°C° 0 mm 3 mps 573 mmHg 63%
    17:00 -15°C° 0 mm 3 mps 572 mmHg 65%
    18:00 -16°C° 0 mm 3 mps 572 mmHg 67%
    19:00 -18°C° 0 mm 3 mps 572 mmHg 69%
    20:00 -18°C° 0 mm 3 mps 572 mmHg 68%
    21:00 -18°C° 0 mm 3 mps 573 mmHg 67%
    22:00 -19°C° 0 mm 3 mps 573 mmHg 65%
    23:00 -19°C° 0 mm 3 mps 573 mmHg 64%

    26 January, Saturday

    Time Temperature Precipitation Wind Pressure Humidity
    00:00 -19°C° 0 mm 3 mps 573 mmHg 62%
    01:00 -19°C° 0 mm 3 mps 573 mmHg 61%
    02:00 -18°C° 0 mm 3 mps 573 mmHg 59%
    03:00 -18°C° 0 mm 3 mps 574 mmHg 58%
    04:00 -18°C° 0 mm 3 mps 574 mmHg 56%
    05:00 -18°C° 0 mm 3 mps 574 mmHg 55%
    06:00 -18°C° 0 mm 3 mps 574 mmHg 53%
    07:00 -18°C° 0 mm 3 mps 574 mmHg 51%
    08:00 -16°C° 0 mm 3 mps 575 mmHg 49%
    09:00 -14°C° 0 mm 3 mps 576 mmHg 46%
    10:00 -13°C° 0 mm 3 mps 576 mmHg 44%
    11:00 -10°C° 0 mm 3 mps 577 mmHg 44%
    12:00 -7°C° 0 mm 2 mps 577 mmHg 45%
    13:00 -5°C° 0 mm 2 mps 578 mmHg 45%
    14:00 -5°C° 0 mm 2 mps 577 mmHg 52%
    15:00 -4°C° 0 mm 1 mps 577 mmHg 58%
    16:00 -4°C° 0 mm 1 mps 576 mmHg 64%
    17:00 -6°C° 0 mm 1 mps 576 mmHg 66%
    18:00 -8°C° 0 mm 1 mps 575 mmHg 68%
    19:00 -10°C° 0 mm 2 mps 575 mmHg 70%
    20:00 -9°C° 0 mm 1 mps 574 mmHg 69%
    21:00 -9°C° 0 mm 1 mps 574 mmHg 69%
    22:00 -9°C° 0 mm 1 mps 574 mmHg 68%
    23:00 -10°C° 0 mm 1 mps 573 mmHg 68%

    27 January, Sunday

    Time Temperature Precipitation Wind Pressure Humidity
    00:00 -10°C° 0 mm 1 mps 573 mmHg 68%
    01:00 -10°C° 0 mm 1 mps 573 mmHg 68%
    02:00 -10°C° 0 mm 1 mps 572 mmHg 68%
    03:00 -10°C° 0 mm 1 mps 572 mmHg 68%
    04:00 -11°C° 0 mm 1 mps 571 mmHg 68%
    05:00 -10°C° 0 mm 1 mps 571 mmHg 68%
    06:00 -10°C° 0 mm 1 mps 570 mmHg 67%
    07:00 -10°C° 0 mm 1 mps 570 mmHg 67%
    08:00 -9°C° 0 mm 1 mps 570 mmHg 65%
    09:00 -9°C° 0 mm 0 mps 570 mmHg 63%
    10:00 -8°C° 0 mm 0 mps 571 mmHg 61%
    11:00 -7°C° 0 mm 1 mps 570 mmHg 58%
    12:00 -6°C° 0 mm 1 mps 570 mmHg 56%
    13:00 -4°C° 0 mm 1 mps 570 mmHg 54%
    14:00 -6°C° 0 mm 1 mps 570 mmHg 56%
    15:00 -7°C° 0 mm 1 mps 569 mmHg 58%
    16:00 -7°C° 0 mm 1 mps 569 mmHg 60%
    17:00 -9°C° 0 mm 1 mps 568 mmHg 62%
    18:00 -10°C° 0 mm 0 mps 568 mmHg 65%
    19:00 -11°C° 0 mm 0 mps 567 mmHg 67%
    20:00 -11°C° 0.1 mm 0 mps 567 mmHg 70%
    21:00 -11°C° 0.1 mm 0 mps 567 mmHg 72%
    22:00 -11°C° 0.1 mm 0 mps 567 mmHg 75%
    23:00 -11°C° 0.2 mm 1 mps 567 mmHg 76%

    28 January, Monday

    Time Temperature Precipitation Wind Pressure Humidity
    00:00 -12°C° 0.2 mm 1 mps 567 mmHg 77%
    01:00 -12°C° 0.2 mm 1 mps 566 mmHg 79%
    02:00 -12°C° 0.2 mm 1 mps 566 mmHg 78%
    03:00 -12°C° 0.2 mm 1 mps 566 mmHg 78%
    04:00 -12°C° 0.2 mm 1 mps 565 mmHg 78%
    05:00 -12°C° 0.3 mm 1 mps 565 mmHg 78%
    06:00 -13°C° 0.3 mm 2 mps 565 mmHg 78%
    07:00 -13°C° 0.3 mm 2 mps 565 mmHg 79%
    08:00 -13°C° 0.2 mm 2 mps 566 mmHg 77%
    09:00 -12°C° 0.2 mm 2 mps 566 mmHg 75%
    10:00 -10°C° 0.2 mm 2 mps 567 mmHg 74%
    11:00 -10°C° 0.2 mm 2 mps 567 mmHg 72%
    12:00 -9°C° 0.2 mm 2 mps 566 mmHg 71%
    13:00 -9°C° 0.2 mm 2 mps 566 mmHg 70%
    14:00 -9°C° 0.1 mm 2 mps 566 mmHg 71%
    15:00 -9°C° 0.1 mm 2 mps 566 mmHg 71%
    16:00 -9°C° 0.1 mm 2 mps 566 mmHg 71%
    17:00 -10°C° 0.1 mm 2 mps 566 mmHg 74%
    18:00 -12°C° 0.1 mm 2 mps 566 mmHg 76%
    19:00 -13°C° 0.1 mm 2 mps 566 mmHg 78%
    20:00 -13°C° 0.1 mm 2 mps 566 mmHg 77%
    21:00 -13°C° 0.1 mm 2 mps 567 mmHg 77%
    22:00 -13°C° 0.1 mm 2 mps 567 mmHg 77%
    23:00 -14°C° 0 mm 2 mps 567 mmHg 77%
    Show more